Volver al catálogo

STARLINK-11318

ActivoComunicacionesVLEO
NORAD 61252·PAYLOAD·🇺🇸 United States

Lanzado Sep 25, 2024 desde Vandenberg Space Force Base

Loading…

Próximos Pases (próximas 24 horas)

TLE

ActualizadoSource: CelesTrak SupGP

Época: Sep 14, 2026, 20:56 UTC

1 61252C 24175K   26257.87270833  .00058055  00000+0  47813-3 0  2570
2 61252  53.1575 203.9062 0001323  99.6086   1.0305 15.69684400    16

Sigue STARLINK-11318 en tiempo real con AllMySat

Download on the App Store